| time (UTC) | temp C | wind direction | speed KPH | gust KPH | rain 1hr cm | rain 24hr cm | rain mn cm | humidity % | barometer mb |
| 20260906101507 | 20 | 140 | 0.0 | 0.0 | 0.00 | 0.05 | 0.00 | 79 | 1016.1 |
| 20260906101005 | 20 | 140 | 0.0 | 0.0 | 0.00 | 0.05 | 0.00 | 79 | 1016.1 |
| 20260906100507 | 20 | 140 | 0.0 | 0.0 | 0.00 | 0.05 | 0.00 | 79 | 1016.0 |
| 20260906100010 | 20 | 144 | 0.0 | 3.2 | 0.00 | 0.05 | 0.00 | 80 | 1016.0 |
| 20260906095508 | 21 | 156 | 0.0 | 3.2 | 0.00 | 0.05 | 0.00 | 81 | 1016.0 |
| 20260906095008 | 21 | 129 | 0.0 | 0.0 | 0.00 | 0.05 | 0.00 | 82 | 1015.9 |
| 20260906094515 | 21 | 209 | 0.0 | 0.0 | 0.00 | 0.05 | 0.00 | 82 | 1015.9 |
| 20260906094009 | 21 | 256 | 0.0 | 0.0 | 0.00 | 0.05 | 0.00 | 82 | 1015.9 |
| 20260906093511 | 21 | 256 | 0.0 | 0.0 | 0.00 | 0.05 | 0.00 | 82 | 1015.9 |
| 20260906093021 | 21 | 246 | 0.0 | 0.0 | 0.00 | 0.05 | 0.00 | 82 | 1015.9 |
| 20260906092511 | 21 | 304 | 0.0 | 0.0 | 0.00 | 0.05 | 0.00 | 82 | 1015.9 |
| 20260906092009 | 21 | 304 | 0.0 | 3.2 | 0.00 | 0.05 | 0.00 | 82 | 1015.9 |
| 20260906091504 | 21 | 5 | 1.6 | 4.8 | 0.00 | 0.05 | 0.00 | 82 | 1015.9 |
| 20260906091004 | 22 | 338 | 1.6 | 4.8 | 0.00 | 0.05 | 0.00 | 82 | 1015.9 |
| 20260906090503 | 22 | 294 | 1.6 | 3.2 | 0.00 | 0.05 | 0.00 | 82 | 1015.9 |
| 20260906090009 | 22 | 305 | 1.6 | 4.8 | 0.00 | 0.05 | 0.00 | 83 | 1015.8 |
| 20260906085508 | 22 | 315 | 0.0 | 8.0 | 0.00 | 0.05 | 0.00 | 83 | 1015.8 |
| 20260906085006 | 22 | 304 | 3.2 | 8.0 | 0.00 | 0.05 | 0.00 | 83 | 1015.7 |
| 20260906084512 | 22 | 314 | 0.0 | 4.8 | 0.00 | 0.05 | 0.00 | 83 | 1015.6 |
| 20260906084013 | 22 | 296 | 1.6 | 6.4 | 0.00 | 0.05 | 0.00 | 84 | 1015.6 |
| 20260906083509 | 22 | 49 | 0.0 | 6.4 | 0.00 | 0.05 | 0.00 | 84 | 1015.5 |
| 20260906083023 | 21 | 44 | 1.6 | 3.2 | 0.00 | 0.05 | 0.00 | 84 | 1015.5 |
| 20260906082511 | 21 | 198 | 1.6 | 3.2 | 0.00 | 0.05 | 0.00 | 84 | 1015.5 |
| 20260906082010 | 21 | 307 | 1.6 | 3.2 | 0.00 | 0.05 | 0.00 | 84 | 1015.3 |
| 20260906081517 | 21 | 206 | 0.0 | 4.8 | 0.00 | 0.05 | 0.00 | 84 | 1015.4 |
| 20260906081012 | 21 | 317 | 1.6 | 6.4 | 0.00 | 0.05 | 0.00 | 84 | 1015.4 |
| 20260906080504 | 21 | 323 | 3.2 | 6.4 | 0.00 | 0.05 | 0.00 | 84 | 1015.5 |
| 20260906080018 | 21 | 236 | 0.0 | 6.4 | 0.00 | 0.05 | 0.00 | 84 | 1015.3 |
| 20260906075504 | 21 | 315 | 1.6 | 6.4 | 0.00 | 0.05 | 0.00 | 84 | 1015.3 |
| 20260906075006 | 21 | 286 | 1.6 | 6.4 | 0.00 | 0.05 | 0.00 | 84 | 1015.3 |
| 20260906074510 | 21 | 294 | 0.0 | 6.4 | 0.00 | 0.05 | 0.00 | 84 | 1015.4 |
| 20260906074007 | 21 | 325 | 1.6 | 6.4 | 0.00 | 0.05 | 0.00 | 84 | 1015.3 |
| 20260906073511 | 21 | 347 | 1.6 | 6.4 | 0.00 | 0.05 | 0.00 | 84 | 1015.4 |
| 20260906073015 | 21 | 300 | 1.6 | 4.8 | 0.00 | 0.05 | 0.00 | 84 | 1015.5 |
| 20260906072511 | 21 | 332 | 0.0 | 4.8 | 0.00 | 0.05 | 0.00 | 84 | 1015.4 |
| 20260906072011 | 21 | 314 | 0.0 | 4.8 | 0.00 | 0.05 | 0.00 | 84 | 1015.3 |
| 20260906071520 | 21 | 318 | 1.6 | 4.8 | 0.00 | 0.05 | 0.00 | 84 | 1015.4 |
| 20260906071015 | 21 | 299 | 1.6 | 4.8 | 0.00 | 0.05 | 0.00 | 84 | 1015.4 |
| 20260906070512 | 21 | 300 | 1.6 | 3.2 | 0.00 | 0.05 | 0.00 | 84 | 1015.5 |
| 20260906070020 | 21 | 277 | 0.0 | 3.2 | 0.00 | 0.05 | 0.00 | 84 | 1015.5 |
| 20260906065504 | 21 | 318 | 0.0 | 3.2 | 0.00 | 0.05 | 0.00 | 84 | 1015.4 |
| 20260906065006 | 21 | 321 | 0.0 | 4.8 | 0.00 | 0.05 | 0.00 | 84 | 1015.4 |
| 20260906064508 | 21 | 243 | 0.0 | 4.8 | 0.00 | 0.05 | 0.00 | 83 | 1015.4 |
| 20260906064009 | 21 | 290 | 1.6 | 4.8 | 0.00 | 0.05 | 0.00 | 83 | 1015.4 |
| 20260906063510 | 21 | 327 | 0.0 | 4.8 | 0.00 | 0.05 | 0.00 | 83 | 1015.3 |
| 20260906063012 | 21 | 228 | 0.0 | 3.2 | 0.00 | 0.05 | 0.00 | 83 | 1015.5 |
| 20260906062512 | 21 | 305 | 0.0 | 3.2 | 0.00 | 0.05 | 0.00 | 83 | 1015.5 |
| 20260906062011 | 21 | 276 | 0.0 | 3.2 | 0.00 | 0.05 | 0.00 | 83 | 1015.4 |
| 20260906061525 | 21 | 271 | 1.6 | 3.2 | 0.00 | 0.05 | 0.00 | 83 | 1015.5 |
| 20260906061011 | 21 | 243 | 0.0 | 3.2 | 0.00 | 0.05 | 0.00 | 83 | 1015.5 |
| 20260906060513 | 21 | 295 | 1.6 | 3.2 | 0.00 | 0.05 | 0.00 | 83 | 1015.3 |
| 20260906060022 | 21 | 248 | 0.0 | 3.2 | 0.00 | 0.05 | 0.00 | 83 | 1015.4 |
| 20260906055515 | 21 | 288 | 1.6 | 3.2 | 0.00 | 0.05 | 0.00 | 83 | 1015.4 |
| 20260906055013 | 21 | 276 | 0.0 | 3.2 | 0.00 | 0.05 | 0.00 | 83 | 1015.4 |
| 20260906054506 | 21 | 336 | 0.0 | 3.2 | 0.00 | 0.05 | 0.00 | 82 | 1015.3 |
| 20260906054007 | 22 | 284 | 0.0 | 3.2 | 0.00 | 0.05 | 0.00 | 82 | 1015.2 |
| 20260906053512 | 22 | 298 | 0.0 | 3.2 | 0.00 | 0.05 | 0.00 | 82 | 1015.3 |
| 20260906053012 | 22 | 172 | 0.0 | 3.2 | 0.00 | 0.05 | 0.00 | 82 | 1015.3 |
| 20260906052512 | 22 | 37 | 1.6 | 3.2 | 0.00 | 0.05 | 0.00 | 82 | 1015.3 |
| 20260906052009 | 22 | 267 | 0.0 | 9.7 | 0.00 | 0.05 | 0.00 | 82 | 1015.2 |
| 20260906051518 | 22 | 278 | 0.0 | 9.7 | 0.00 | 0.05 | 0.00 | 81 | 1015.2 |
| 20260906051011 | 22 | 325 | 0.0 | 6.4 | 0.00 | 0.05 | 0.00 | 81 | 1015.1 |
| 20260906050513 | 22 | 317 | 0.0 | 9.7 | 0.00 | 0.05 | 0.00 | 81 | 1015.1 |
| 20260906050027 | 22 | 308 | 3.2 | 8.0 | 0.00 | 0.05 | 0.00 | 80 | 1015.1 |
| 20260906045514 | 22 | 316 | 0.0 | 8.0 | 0.00 | 0.05 | 0.00 | 80 | 1015.1 |
| 20260906045014 | 22 | 313 | 3.2 | 8.0 | 0.00 | 0.05 | 0.00 | 80 | 1015.0 |
| 20260906044524 | 22 | 347 | 1.6 | 8.0 | 0.00 | 0.05 | 0.00 | 80 | 1015.1 |
| 20260906044016 | 22 | 297 | 1.6 | 4.8 | 0.00 | 0.05 | 0.00 | 80 | 1015.1 |
| 20260906043506 | 22 | 13 | 1.6 | 6.4 | 0.00 | 0.05 | 0.00 | 80 | 1014.9 |
| 20260906043018 | 22 | 310 | 0.0 | 6.4 | 0.00 | 0.05 | 0.00 | 81 | 1014.9 |
| 20260906042509 | 22 | 273 | 0.0 | 4.8 | 0.00 | 0.05 | 0.00 | 80 | 1014.9 |
| 20260906042011 | 22 | 220 | 0.0 | 9.7 | 0.00 | 0.05 | 0.00 | 80 | 1014.8 |
| 20260906041517 | 22 | 142 | 3.2 | 9.7 | 0.00 | 0.05 | 0.00 | 80 | 1014.7 |
| 20260906041015 | 22 | 312 | 3.2 | 8.0 | 0.00 | 0.05 | 0.00 | 80 | 1014.7 |
| 20260906040511 | 22 | 22 | 3.2 | 12.9 | 0.00 | 0.05 | 0.00 | 79 | 1014.7 |
| 20260906040026 | 22 | 47 | 3.2 | 12.9 | 0.00 | 0.05 | 0.00 | 79 | 1014.7 |
| 20260906035514 | 22 | 329 | 3.2 | 9.7 | 0.00 | 0.05 | 0.05 | 79 | 1014.9 |
| 20260906035016 | 22 | 296 | 1.6 | 9.7 | 0.00 | 0.05 | 0.05 | 79 | 1014.8 |
| 20260906034526 | 22 | 316 | 3.2 | 8.0 | 0.00 | 0.05 | 0.05 | 79 | 1014.9 |
| 20260906034015 | 23 | 332 | 1.6 | 6.4 | 0.00 | 0.05 | 0.05 | 79 | 1014.9 |
| 20260906033514 | 23 | 309 | 1.6 | 9.7 | 0.00 | 0.05 | 0.05 | 78 | 1014.9 |
| 20260906033026 | 23 | 352 | 1.6 | 14.5 | 0.00 | 0.05 | 0.05 | 78 | 1015.0 |
| 20260906032507 | 23 | 315 | 4.8 | 14.5 | 0.00 | 0.05 | 0.05 | 78 | 1014.9 |
| 20260906032007 | 23 | 35 | 3.2 | 9.7 | 0.00 | 0.05 | 0.05 | 78 | 1014.8 |
| 20260906031517 | 23 | 314 | 3.2 | 9.7 | 0.00 | 0.05 | 0.05 | 77 | 1014.7 |
| 20260906031008 | 23 | 338 | 3.2 | 8.0 | 0.00 | 0.05 | 0.05 | 77 | 1014.9 |
| 20260906030512 | 23 | 69 | 3.2 | 8.0 | 0.00 | 0.05 | 0.05 | 77 | 1014.9 |
| 20260906030022 | 23 | 236 | 3.2 | 8.0 | 0.00 | 0.05 | 0.05 | 76 | 1014.9 |
| 20260906025515 | 23 | 298 | 3.2 | 9.7 | 0.00 | 0.05 | 0.05 | 76 | 1014.9 |
| 20260906025017 | 23 | 304 | 3.2 | 9.7 | 0.00 | 0.05 | 0.05 | 76 | 1014.9 |
| 20260906024504 | 24 | 112 | 1.6 | 8.0 | 0.00 | 0.05 | 0.05 | 76 | 1014.8 |
| 20260906024003 | 24 | 302 | 1.6 | 8.0 | 0.00 | 0.05 | 0.05 | 75 | 1014.6 |
| 20260906023504 | 24 | 275 | 3.2 | 16.1 | 0.00 | 0.05 | 0.05 | 75 | 1014.6 |
| 20260906023004 | 24 | 270 | 4.8 | 16.1 | 0.00 | 0.05 | 0.05 | 74 | 1014.4 |
| 20260906022510 | 25 | 204 | 3.2 | 9.7 | 0.00 | 0.05 | 0.05 | 74 | 1014.4 |
| 20260906022008 | 25 | 302 | 1.6 | 12.9 | 0.00 | 0.05 | 0.05 | 73 | 1014.3 |
| 20260906021512 | 25 | 342 | 6.4 | 19.3 | 0.00 | 0.05 | 0.05 | 73 | 1014.2 |
| 20260906021010 | 25 | 343 | 6.4 | 19.3 | 0.00 | 0.05 | 0.05 | 73 | 1014.2 |
| 20260906020512 | 25 | 333 | 4.8 | 16.1 | 0.00 | 0.05 | 0.05 | 73 | 1014.2 |
| 20260906020018 | 25 | 311 | 4.8 | 14.5 | 0.00 | 0.05 | 0.05 | 73 | 1014.1 |
| 20260906015513 | 25 | 327 | 3.2 | 8.0 | 0.00 | 0.05 | 0.05 | 73 | 1014.1 |
| 20260906015015 | 25 | 336 | 3.2 | 8.0 | 0.00 | 0.05 | 0.05 | 73 | 1014.0 |
| 20260906014528 | 26 | 344 | 3.2 | 8.0 | 0.00 | 0.05 | 0.05 | 72 | 1014.1 |
| 20260906014015 | 26 | 294 | 1.6 | 6.4 | 0.00 | 0.05 | 0.05 | 72 | 1014.1 |
| 20260906013504 | 26 | 259 | 0.0 | 4.8 | 0.00 | 0.05 | 0.05 | 72 | 1014.0 |
| 20260906013006 | 26 | 299 | 1.6 | 4.8 | 0.00 | 0.05 | 0.05 | 71 | 1013.9 |
| 20260906012503 | 26 | 292 | 1.6 | 6.4 | 0.00 | 0.05 | 0.05 | 70 | 1013.8 |
| 20260906012006 | 26 | 5 | 3.2 | 6.4 | 0.00 | 0.05 | 0.05 | 70 | 1013.7 |
| 20260906011512 | 26 | 303 | 1.6 | 4.8 | 0.00 | 0.05 | 0.05 | 69 | 1013.7 |
| 20260906011010 | 26 | 273 | 1.6 | 3.2 | 0.00 | 0.05 | 0.05 | 69 | 1013.6 |
| 20260906010508 | 27 | 203 | 1.6 | 6.4 | 0.00 | 0.05 | 0.05 | 69 | 1013.6 |
| 20260906010018 | 27 | 321 | 3.2 | 6.4 | 0.00 | 0.05 | 0.05 | 68 | 1013.5 |
| 20260906005514 | 27 | 258 | 1.6 | 14.5 | 0.00 | 0.05 | 0.05 | 68 | 1013.3 |
| 20260906005013 | 27 | 265 | 3.2 | 12.9 | 0.00 | 0.05 | 0.05 | 68 | 1013.3 |
| 20260906004525 | 27 | 238 | 3.2 | 9.7 | 0.00 | 0.05 | 0.05 | 69 | 1013.1 |
| 20260906004012 | 27 | 334 | 3.2 | 9.7 | 0.00 | 0.05 | 0.05 | 68 | 1013.1 |
| 20260906003516 | 27 | 315 | 1.6 | 6.4 | 0.00 | 0.05 | 0.05 | 69 | 1013.2 |
| 20260906003030 | 28 | 284 | 1.6 | 8.0 | 0.00 | 0.05 | 0.05 | 68 | 1013.3 |
| 20260906002504 | 28 | 9 | 3.2 | 12.9 | 0.00 | 0.05 | 0.05 | 68 | 1013.3 |
| 20260906002006 | 28 | 255 | 4.8 | 12.9 | 0.00 | 0.05 | 0.05 | 69 | 1013.2 |
| 20260906001516 | 28 | 285 | 3.2 | 6.4 | 0.00 | 0.05 | 0.05 | 70 | 1013.2 |
| 20260906001007 | 28 | 308 | 1.6 | 6.4 | 0.00 | 0.05 | 0.05 | 69 | 1013.3 |
| 20260906000509 | 28 | 15 | 3.2 | 4.8 | 0.00 | 0.05 | 0.05 | 70 | 1013.2 |
| 20260906000034 | 28 | 360 | 1.6 | 14.5 | 0.00 | 0.05 | 0.05 | 68 | 1013.3 |
| 20260905235510 | 29 | 313 | 4.8 | 14.5 | 0.00 | 0.05 | 0.05 | 68 | 1013.2 |
| 20260905235015 | 29 | 247 | 3.2 | 12.9 | 0.00 | 0.05 | 0.05 | 68 | 1013.2 |
| 20260905234523 | 30 | 317 | 1.6 | 6.4 | 0.00 | 0.05 | 0.05 | 69 | 1013.0 |
| 20260905234014 | 30 | 323 | 3.2 | 16.1 | 0.00 | 0.05 | 0.05 | 67 | 1012.8 |
| 20260905233514 | 30 | 286 | 3.2 | 16.1 | 0.00 | 0.05 | 0.05 | 66 | 1012.8 |
| 20260905233025 | 30 | 22 | 6.4 | 16.1 | 0.00 | 0.05 | 0.05 | 65 | 1012.8 |
| 20260905232517 | 31 | 329 | 4.8 | 12.9 | 0.00 | 0.05 | 0.05 | 65 | 1012.7 |
| 20260905232016 | 31 | 350 | 4.8 | 12.9 | 0.00 | 0.05 | 0.05 | 64 | 1012.7 |
| 20260905231507 | 31 | 360 | 4.8 | 12.9 | 0.00 | 0.05 | 0.05 | 64 | 1012.7 |
| 20260905231007 | 31 | 348 | 4.8 | 9.7 | 0.00 | 0.05 | 0.05 | 64 | 1012.7 |
| 20260905230508 | 31 | 329 | 4.8 | 14.5 | 0.00 | 0.05 | 0.05 | 64 | 1012.5 |
| 20260905230010 | 31 | 333 | 8.0 | 14.5 | 0.00 | 0.05 | 0.05 | 62 | 1012.5 |
| 20260905225511 | 31 | 299 | 3.2 | 8.0 | 0.00 | 0.05 | 0.05 | 63 | 1012.4 |
| 20260905225010 | 32 | 344 | 4.8 | 8.0 | 0.00 | 0.05 | 0.05 | 62 | 1012.4 |
| 20260905224518 | 32 | 318 | 3.2 | 14.5 | 0.00 | 0.05 | 0.05 | 63 | 1012.4 |
| 20260905224013 | 32 | 302 | 4.8 | 14.5 | 0.00 | 0.05 | 0.05 | 61 | 1012.4 |
| 20260905223513 | 32 | 290 | 4.8 | 9.7 | 0.00 | 0.05 | 0.05 | 61 | 1012.4 |
| 20260905223028 | 32 | 360 | 4.8 | 16.1 | 0.00 | 0.05 | 0.05 | 61 | 1012.3 |
| 20260905222515 | 32 | 299 | 8.0 | 16.1 | 0.00 | 0.05 | 0.05 | 61 | 1012.4 |
| 20260905222015 | 32 | 348 | 3.2 | 14.5 | 0.00 | 0.05 | 0.05 | 63 | 1012.4 |
| 20260905221532 | 32 | 336 | 3.2 | 14.5 | 0.00 | 0.05 | 0.05 | 61 | 1012.3 |
| 20260905221003 | 32 | 5 | 6.4 | 9.7 | 0.00 | 0.05 | 0.05 | 62 | 1012.3 |
| 20260905220506 | 32 | 313 | 4.8 | 9.7 | 0.00 | 0.05 | 0.05 | 64 | 1012.3 |
| 20260905220011 | 32 | 344 | 3.2 | 12.9 | 0.00 | 0.05 | 0.05 | 61 | 1012.3 |
| 20260905215507 | 32 | 329 | 6.4 | 12.9 | 0.00 | 0.05 | 0.05 | 60 | 1012.3 |
| 20260905215008 | 33 | 337 | 1.6 | 8.0 | 0.00 | 0.05 | 0.05 | 60 | 1012.3 |
| 20260905214518 | 32 | 109 | 1.6 | 3.2 | 0.00 | 0.05 | 0.05 | 62 | 1012.3 |
| 20260905214014 | 32 | 306 | 1.6 | 6.4 | 0.00 | 0.05 | 0.05 | 63 | 1012.4 |
| 20260905213513 | 32 | 44 | 3.2 | 6.4 | 0.00 | 0.05 | 0.05 | 61 | 1012.4 |
| 20260905213023 | 32 | 351 | 1.6 | 4.8 | 0.00 | 0.05 | 0.05 | 64 | 1012.4 |
| 20260905212516 | 32 | 336 | 0.0 | 4.8 | 0.00 | 0.05 | 0.05 | 65 | 1012.4 |
| 20260905212013 | 32 | 150 | 0.0 | 3.2 | 0.00 | 0.05 | 0.05 | 64 | 1012.2 |
| 20260905211529 | 32 | 215 | 0.0 | 3.2 | 0.00 | 0.05 | 0.05 | 63 | 1012.2 |
| 20260905211015 | 32 | 322 | 0.0 | 3.2 | 0.00 | 0.05 | 0.05 | 59 | 1012.2 |
| 20260905210519 | 32 | 227 | 1.6 | 3.2 | 0.00 | 0.05 | 0.05 | 59 | 1012.3 |
| 20260905210008 | 32 | 316 | 1.6 | 3.2 | 0.00 | 0.05 | 0.05 | 63 | 1012.3 |
| 20260905205508 | 31 | 173 | 0.0 | 3.2 | 0.00 | 0.05 | 0.05 | 63 | 1012.4 |
| 20260905205007 | 31 | 173 | 0.0 | 3.2 | 0.00 | 0.05 | 0.05 | 63 | 1012.4 |
| 20260905204514 | 31 | 173 | 0.0 | 3.2 | 0.00 | 0.05 | 0.05 | 67 | 1012.5 |
| 20260905204011 | 30 | 160 | 1.6 | 3.2 | 0.00 | 0.05 | 0.05 | 63 | 1012.5 |
| 20260905203513 | 30 | 160 | 0.0 | 3.2 | 0.00 | 0.05 | 0.05 | 63 | 1012.5 |
| 20260905203024 | 30 | 133 | 0.0 | 3.2 | 0.03 | 0.05 | 0.05 | 68 | 1012.5 |
| 20260905202518 | 30 | 132 | 0.0 | 3.2 | 0.05 | 0.05 | 0.05 | 69 | 1012.6 |
| 20260905202014 | 30 | 224 | 0.0 | 3.2 | 0.05 | 0.05 | 0.05 | 71 | 1012.7 |
| 20260905201526 | 30 | 224 | 0.0 | 3.2 | 0.05 | 0.05 | 0.05 | 69 | 1012.7 |
| 20260905201015 | 30 | 334 | 0.0 | 3.2 | 0.05 | 0.05 | 0.05 | 71 | 1012.7 |
| 20260905200515 | 27 | 148 | 0.0 | 3.2 | 0.05 | 0.05 | 0.05 | 81 | 1012.8 |
| 20260905200032 | 27 | 166 | 1.6 | 4.8 | 0.05 | 0.05 | 0.05 | 79 | 1013.0 |
| 20260905195519 | 27 | 136 | 1.6 | 4.8 | 0.05 | 0.05 | 0.05 | 78 | 1013.1 |
| 20260905195008 | 27 | 229 | 1.6 | 4.8 | 0.05 | 0.05 | 0.05 | 69 | 1013.2 |
| 20260905194514 | 28 | 316 | 1.6 | 8.0 | 0.05 | 0.05 | 0.05 | 70 | 1013.3 |
| 20260905194012 | 28 | 284 | 3.2 | 8.0 | 0.05 | 0.05 | 0.05 | 70 | 1013.7 |
| 20260905193507 | 28 | 157 | 3.2 | 3.2 | 0.05 | 0.05 | 0.05 | 77 | 1013.4 |
| 20260905193019 | 30 | 311 | 0.0 | 6.4 | 0.03 | 0.03 | 0.03 | 70 | 1013.3 |
| 20260905192513 | 31 | 352 | 1.6 | 6.4 | 0.00 | 0.00 | 0.00 | 66 | 1013.3 |
| 20260905192014 | 31 | 326 | 1.6 | 11.3 | 0.00 | 0.00 | 0.00 | 67 | 1013.3 |
| 20260905191528 | 32 | 332 | 1.6 | 11.3 | 0.00 | 0.00 | 0.00 | 58 | 1013.1 |
| 20260905191016 | 33 | 311 | 3.2 | 11.3 | 0.00 | 0.00 | 0.00 | 56 | 1013.2 |
| 20260905190517 | 33 | 223 | 3.2 | 8.0 | 0.00 | 0.00 | 0.00 | 58 | 1013.2 |
| 20260905190029 | 33 | 20 | 1.6 | 6.4 | 0.00 | 0.00 | 0.00 | 64 | 1013.1 |
| 20260905185517 | 32 | 302 | 0.0 | 3.2 | 0.00 | 0.00 | 0.00 | 60 | 1013.0 |
| 20260905185014 | 32 | 194 | 0.0 | 3.2 | 0.00 | 0.00 | 0.00 | 61 | 1013.2 |
| 20260905184550 | 32 | 302 | 1.6 | 3.2 | 0.00 | 0.00 | 0.00 | 62 | 1013.2 |
| 20260905184008 | 32 | 157 | 1.6 | 3.2 | 0.00 | 0.00 | 0.00 | 65 | 1013.4 |
| 20260905183511 | 32 | 190 | 0.0 | 3.2 | 0.00 | 0.00 | 0.00 | 63 | 1013.5 |
| 20260905183036 | 32 | 15 | 1.6 | 3.2 | 0.00 | 0.00 | 0.00 | 57 | 1013.6 |
| 20260905182513 | 32 | 315 | 1.6 | 3.2 | 0.00 | 0.00 | 0.00 | 58 | 1013.6 |
| 20260905182014 | 32 | 160 | 1.6 | 4.8 | 0.00 | 0.00 | 0.00 | 60 | 1013.7 |
| 20260905181524 | 32 | 298 | 1.6 | 4.8 | 0.00 | 0.00 | 0.00 | 63 | 1013.8 |
| 20260905181013 | 32 | 143 | 1.6 | 4.8 | 0.00 | 0.00 | 0.00 | 59 | 1013.9 |
| 20260905180516 | 32 | 67 | 1.6 | 4.8 | 0.00 | 0.00 | 0.00 | 64 | 1014.0 |
| 20260905180033 | 32 | 95 | 1.6 | 4.8 | 0.00 | 0.00 | 0.00 | 59 | 1014.1 |
| 20260905175514 | 32 | 125 | 0.0 | 4.8 | 0.00 | 0.00 | 0.00 | 69 | 1014.2 |
| 20260905175018 | 32 | 325 | 1.6 | 4.8 | 0.00 | 0.00 | 0.00 | 61 | 1014.2 |
| 20260905174529 | 32 | 119 | 1.6 | 3.2 | 0.00 | 0.00 | 0.00 | 59 | 1014.2 |
| 20260905174020 | 32 | 22 | 1.6 | 3.2 | 0.00 | 0.00 | 0.00 | 62 | 1014.3 |
| 20260905173510 | 32 | 323 | 0.0 | 4.8 | 0.00 | 0.00 | 0.00 | 64 | 1014.2 |
| 20260905173013 | 32 | 138 | 0.0 | 4.8 | 0.00 | 0.00 | 0.00 | 62 | 1014.2 |
| 20260905172513 | 31 | 286 | 1.6 | 6.4 | 0.00 | 0.00 | 0.00 | 63 | 1014.2 |
| 20260905172012 | 31 | 55 | 3.2 | 6.4 | 0.00 | 0.00 | 0.00 | 62 | 1014.2 |
| 20260905171521 | 31 | 150 | 1.6 | 4.8 | 0.00 | 0.00 | 0.00 | 64 | 1014.2 |
| 20260905171013 | 31 | 189 | 1.6 | 4.8 | 0.00 | 0.00 | 0.00 | 64 | 1014.2 |
| 20260905170512 | 31 | 203 | 1.6 | 4.8 | 0.00 | 0.00 | 0.00 | 64 | 1014.2 |
| 20260905170026 | 30 | 207 | 1.6 | 4.8 | 0.00 | 0.00 | 0.00 | 67 | 1014.3 |
| 20260905165516 | 31 | 213 | 1.6 | 4.8 | 0.00 | 0.00 | 0.00 | 66 | 1014.4 |
| 20260905165017 | 30 | 12 | 1.6 | 4.8 | 0.00 | 0.00 | 0.00 | 62 | 1014.4 |
| 20260905164533 | 30 | 276 | 3.2 | 4.8 | 0.00 | 0.00 | 0.00 | 62 | 1014.5 |
| 20260905164015 | 30 | 26 | 1.6 | 4.8 | 0.00 | 0.00 | 0.00 | 63 | 1014.5 |
| 20260905163515 | 30 | 21 | 0.0 | 8.0 | 0.00 | 0.00 | 0.00 | 67 | 1014.5 |
| 20260905163031 | 30 | 133 | 0.0 | 8.0 | 0.00 | 0.00 | 0.00 | 65 | 1014.5 |
| 20260905162511 | 30 | 267 | 1.6 | 4.8 | 0.00 | 0.00 | 0.00 | 67 | 1014.5 |
| 20260905162010 | 29 | 325 | 0.0 | 3.2 | 0.00 | 0.00 | 0.00 | 69 | 1014.4 |
| 20260905161517 | 28 | 196 | 0.0 | 3.2 | 0.00 | 0.00 | 0.00 | 69 | 1014.6 |
| 20260905161010 | 28 | 317 | 0.0 | 3.2 | 0.00 | 0.00 | 0.00 | 70 | 1014.8 |
| 20260905160514 | 29 | 275 | 1.6 | 3.2 | 0.00 | 0.00 | 0.00 | 66 | 1014.8 |
| 20260905160027 | 29 | 261 | 0.0 | 4.8 | 0.00 | 0.00 | 0.00 | 69 | 1014.5 |
| 20260905155516 | 30 | 240 | 1.6 | 8.0 | 0.00 | 0.00 | 0.00 | 68 | 1014.4 |
| 20260905155015 | 29 | 231 | 0.0 | 8.0 | 0.00 | 0.00 | 0.00 | 67 | 1014.5 |
| 20260905154540 | 29 | 250 | 1.6 | 8.0 | 0.00 | 0.00 | 0.00 | 70 | 1014.6 |
| 20260905154017 | 30 | 173 | 1.6 | 4.8 | 0.00 | 0.00 | 0.00 | 68 | 1014.9 |
| 20260905153518 | 30 | 40 | 1.6 | 4.8 | 0.00 | 0.00 | 0.00 | 68 | 1014.9 |
| 20260905153031 | 30 | 22 | 1.6 | 4.8 | 0.00 | 0.00 | 0.00 | 70 | 1014.9 |
| 20260905152519 | 29 | 328 | 1.6 | 6.4 | 0.00 | 0.00 | 0.00 | 68 | 1014.8 |
| 20260905152020 | 29 | 138 | 1.6 | 6.4 | 0.00 | 0.00 | 0.00 | 71 | 1014.6 |
| 20260905151516 | 28 | 82 | 1.6 | 6.4 | 0.00 | 0.00 | 0.00 | 68 | 1014.7 |
| 20260905151015 | 28 | 223 | 1.6 | 6.4 | 0.00 | 0.00 | 0.00 | 70 | 1014.5 |
| 20260905150514 | 28 | 152 | 0.0 | 6.4 | 0.00 | 0.00 | 0.00 | 72 | 1014.5 |
| 20260905150023 | 28 | 182 | 1.6 | 4.8 | 0.00 | 0.00 | 0.00 | 71 | 1014.8 |
| 20260905145513 | 28 | 118 | 1.6 | 6.4 | 0.00 | 0.00 | 0.00 | 70 | 1015.1 |
| 20260905145016 | 28 | 275 | 0.0 | 6.4 | 0.00 | 0.00 | 0.00 | 71 | 1015.1 |
| 20260905144534 | 28 | 157 | 1.6 | 3.2 | 0.00 | 0.00 | 0.00 | 71 | 1014.9 |
| 20260905144017 | 28 | 164 | 0.0 | 3.2 | 0.00 | 0.00 | 0.00 | 72 | 1014.9 |
| 20260905143519 | 28 | 28 | 0.0 | 4.8 | 0.00 | 0.00 | 0.00 | 74 | 1014.9 |
| 20260905143033 | 27 | 105 | 1.6 | 4.8 | 0.00 | 0.00 | 0.00 | 76 | 1015.0 |
| 20260905142515 | 27 | 238 | 0.0 | 4.8 | 0.00 | 0.00 | 0.00 | 79 | 1015.0 |
| 20260905142020 | 27 | 155 | 0.0 | 3.2 | 0.00 | 0.00 | 0.00 | 79 | 1014.9 |
| 20260905141534 | 26 | 196 | 0.0 | 3.2 | 0.00 | 0.00 | 0.00 | 80 | 1014.8 |
| 20260905141019 | 26 | 209 | 0.0 | 3.2 | 0.00 | 0.00 | 0.00 | 80 | 1014.8 |
| 20260905140510 | 26 | 146 | 0.0 | 3.2 | 0.00 | 0.00 | 0.00 | 80 | 1014.9 |
| 20260905140017 | 26 | 142 | 1.6 | 3.2 | 0.00 | 0.00 | 0.00 | 80 | 1014.8 |
| 20260905135512 | 26 | 158 | 0.0 | 3.2 | 0.00 | 0.00 | 0.00 | 83 | 1014.9 |
| 20260905135017 | 25 | 136 | 0.0 | 3.2 | 0.00 | 0.00 | 0.00 | 83 | 1014.8 |
| 20260905134527 | 25 | 138 | 1.6 | 3.2 | 0.00 | 0.00 | 0.00 | 84 | 1014.7 |
| 20260905134019 | 25 | 259 | 0.0 | 3.2 | 0.00 | 0.00 | 0.00 | 83 | 1014.5 |
| 20260905133514 | 25 | 259 | 0.0 | 3.2 | 0.00 | 0.00 | 0.00 | 83 | 1014.6 |
| 20260905133041 | 25 | 258 | 0.0 | 3.2 | 0.00 | 0.00 | 0.00 | 83 | 1014.6 |
| 20260905132518 | 25 | 259 | 0.0 | 3.2 | 0.00 | 0.00 | 0.00 | 84 | 1014.5 |
| 20260905132016 | 24 | 259 | 0.0 | 1.6 | 0.00 | 0.00 | 0.00 | 84 | 1014.5 |
| 20260905131538 | 24 | 259 | 0.0 | 3.2 | 0.00 | 0.00 | 0.00 | 84 | 1014.5 |
| 20260905131018 | 24 | 259 | 0.0 | 3.2 | 0.00 | 0.00 | 0.00 | 84 | 1014.5 |
| 20260905130518 | 24 | 259 | 0.0 | 3.2 | 0.00 | 0.00 | 0.00 | 84 | 1014.4 |
| 20260905130033 | 23 | 259 | 0.0 | 3.2 | 0.00 | 0.00 | 0.00 | 84 | 1014.4 |
| 20260905125510 | 23 | 259 | 0.0 | 0.0 | 0.00 | 0.00 | 0.00 | 84 | 1014.4 |
| 20260905125014 | 23 | 259 | 0.0 | 0.0 | 0.00 | 0.00 | 0.00 | 85 | 1014.5 |
| 20260905124527 | 23 | 259 | 0.0 | 0.0 | 0.00 | 0.00 | 0.00 | 85 | 1014.4 |
| 20260905124017 | 23 | 259 | 0.0 | 0.0 | 0.00 | 0.00 | 0.00 | 85 | 1014.4 |
| 20260905123517 | 23 | 259 | 0.0 | 0.0 | 0.00 | 0.00 | 0.00 | 85 | 1014.3 |
| 20260905123030 | 23 | 259 | 0.0 | 0.0 | 0.00 | 0.00 | 0.00 | 85 | 1014.3 |
| 20260905122516 | 23 | 259 | 0.0 | 0.0 | 0.00 | 0.00 | 0.00 | 85 | 1014.2 |
| 20260905122017 | 23 | 259 | 0.0 | 0.0 | 0.00 | 0.00 | 0.00 | 85 | 1014.1 |
| 20260905121531 | 23 | 259 | 0.0 | 0.0 | 0.00 | 0.00 | 0.00 | 85 | 1014.0 |
| 20260905121018 | 23 | 259 | 0.0 | 0.0 | 0.00 | 0.00 | 0.00 | 85 | 1014.1 |
| 20260905120518 | 23 | 259 | 0.0 | 3.2 | 0.00 | 0.00 | 0.00 | 85 | 1014.1 |
| 20260905120040 | 23 | 259 | 0.0 | 3.2 | 0.00 | 0.00 | 0.00 | 85 | 1014.1 |
| 20260905115516 | 23 | 259 | 0.0 | 3.2 | 0.00 | 0.00 | 0.00 | 85 | 1014.1 |
| 20260905115014 | 23 | 259 | 0.0 | 3.2 | 0.00 | 0.00 | 0.00 | 86 | 1014.1 |
| 20260905114524 | 23 | 259 | 0.0 | 3.2 | 0.00 | 0.00 | 0.00 | 85 | 1014.0 |
| 20260905114015 | 22 | 259 | 0.0 | 3.2 | 0.00 | 0.00 | 0.00 | 85 | 1014.1 |
| 20260905113516 | 23 | 259 | 0.0 | 1.6 | 0.00 | 0.00 | 0.00 | 85 | 1014.1 |
| 20260905113042 | 23 | 259 | 0.0 | 0.0 | 0.00 | 0.00 | 0.00 | 85 | 1014.0 |
| 20260905112518 | 23 | 259 | 0.0 | 0.0 | 0.00 | 0.00 | 0.00 | 85 | 1013.9 |
| 20260905112018 | 23 | 259 | 0.0 | 0.0 | 0.00 | 0.00 | 0.00 | 85 | 1014.0 |
| 20260905111551 | 23 | 259 | 0.0 | 0.0 | 0.00 | 0.00 | 0.00 | 85 | 1014.0 |
| 20260905111017 | 23 | 259 | 0.0 | 0.0 | 0.00 | 0.00 | 0.00 | 85 | 1014.0 |
| 20260905110506 | 23 | 259 | 0.0 | 0.0 | 0.00 | 0.00 | 0.00 | 85 | 1014.0 |
| 20260905110031 | 23 | 259 | 0.0 | 1.6 | 0.00 | 0.00 | 0.00 | 85 | 1013.9 |
| 20260905105511 | 22 | 259 | 0.0 | 1.6 | 0.00 | 0.00 | 0.00 | 85 | 1014.0 |
| 20260905105010 | 22 | 259 | 0.0 | 3.2 | 0.00 | 0.00 | 0.00 | 84 | 1013.9 |
| 20260905104519 | 23 | 259 | 0.0 | 3.2 | 0.00 | 0.00 | 0.00 | 85 | 1013.9 |
| 20260905104014 | 23 | 259 | 0.0 | 1.6 | 0.00 | 0.00 | 0.00 | 85 | 1013.8 |
| 20260905103519 | 23 | 259 | 0.0 | 3.2 | 0.00 | 0.00 | 0.00 | 85 | 1013.8 |
| 20260905103028 | 23 | 259 | 0.0 | 3.2 | 0.00 | 0.00 | 0.00 | 85 | 1013.9 |
| 20260905102516 | 23 | 259 | 0.0 | 0.0 | 0.00 | 0.00 | 0.00 | 85 | 1013.9 |
| 20260905102015 | 23 | 259 | 0.0 | 3.2 | 0.00 | 0.00 | 0.00 | 85 | 1013.9 |